Regional Weather Roundup
Issued by NWS Cleveland, OH

Home | Current Version | Previous Version | Text Only | Print | Product List | Glossary Off
Versions: 1 2 3 4 5 6 7 8 9 10 11 12 13 14 15 16 17 18 19 20 21 22 23 24 25 26 27 28 29 30 31 32 33 34 35 36 37 38 39 40 41 42 43 44 45 46 47 48 49 50

000
ASUS41 KCLE 031410
RWRCLE
OHIO REGIONAL WEATHER ROUNDUP
NATIONAL WEATHER SERVICE WILMINGTON, OH
1000 AM EDT SUN MAY 03 2015

NOTE: "FAIR" INDICATES FEW OR NO CLOUDS BELOW 12,000 FEET WITH NO
SIGNIFICANT WEATHER AND/OR OBSTRUCTIONS TO VISIBILITY.

OHZ001>008-015>018-024>027-034-035-043-044-031500-
   NORTHWEST OHIO

CITY           SKY/WX    TMP DP  RH WIND       PRES   REMARKS
DEFIANCE       SUNNY     68  45  43 SW6       30.09S
FINDLAY        SUNNY     69  47  45 SW7       30.09S
TOLEDO EXPRESS SUNNY     68  44  42 SW10      30.08S
TOLEDO EXEC    SUNNY     68  44  42 SW10      30.09S
LIMA           PTSUNNY   65  47  52 SW8       30.11R
$$

OHZ009>014-019>023-028>033-038-089-031500-
   NORTHEAST OHIO

CITY           SKY/WX    TMP DP  RH WIND       PRES   REMARKS
CLE-HOPKINS    MOSUNNY   68  45  43 SW6       30.12S
CLE-LAKEFRONT  SUNNY     70  43  37 SW7       30.09R
CUY CO. ARPT   SUNNY     72  46  40 W9        30.11R
LORAIN-ELYRIA  SUNNY     68  45  43 SW8       30.11R
ASHTABULA      SUNNY     68  41  37 SW7       30.11S
AKRON-CANTON   MOSUNNY   69  42  37 W8        30.13R
WOOSTER        SUNNY     67  43  41 SW10      30.13R
MANSFIELD      SUNNY     70  43  37 SW7       30.12S
YOUNGSTOWN     MOSUNNY   68  44  42 VRB6      30.12R
$$

OHZ042-051>053-060>062-070>072-077>081-031500-
  SOUTHWEST OHIO

CITY           SKY/WX    TMP DP  RH WIND       PRES   REMARKS
CINC-COVINGTON PTSUNNY   66  51  58 S5        30.14R
CINC-LUNKEN    MOSUNNY   61  52  72 SW3       30.14S
HAMILTON       MOSUNNY   62  51  67 E3        30.14S
DAYTON         PTSUNNY   67  49  52 SW7       30.14R
WRIGHT-PAT AFB PTSUNNY   64  49  58 S2        30.13S
DAYTON GENERAL PTSUNNY   62  49  62 S5        30.13R
WILMINGTON     MOSUNNY   67  49  52 S3        30.14S
$$

OHZ036-037-039>041-045>050-054>059-063>069-073>076-082>088-031500-
  CENTRAL AND SOUTHEAST OHIO

CITY           SKY/WX    TMP DP  RH WIND       PRES   REMARKS
COLUMBUS       PTSUNNY   63  47  55 S5        30.13S
OSU AIRPORT    PTSUNNY   67  47  48 CALM      30.13S
BOLTON FIELD   SUNNY     61  50  67 S7        30.14S
RICKENBACK AFB PTSUNNY   61  47  60 S7        30.14S
NEWARK         MOSUNNY   65  49  56 S7        30.13S
MARION         MOSUNNY   66  47  50 SW6       30.12S
LANCASTER      PTSUNNY   65  47  52 SW7       30.15R
ZANESVILLE     MOSUNNY   62  45  53 S3        30.14S
NEW PHILLY     MOSUNNY   64  47  53 E5        30.14S
$$



USA.gov is the U.S. government's official web portal to all federal, state and local government web resources and services.